Weather History for Douglas, WY

Change the Weather History Date:

Tuesday, June 25, 2013

  Actual Average Record
Temperature  
Mean Temperature 72 °F 67 °F  
Max Temperature 88 °F 84 °F 100 °F (2012)
Min Temperature 56 °F 50 °F 42 °F (2003)
Degree Days  
Heating Degree Days 0 2  
Month to date heating degree days 56 103  
Since 1 June heating degree days 56 103  
Since 1 July heating degree days 7134 7434  
Cooling Degree Days 7 4  
Month to date cooling degree days 59 50  
Year to date cooling degree days 75 56  
Since 1 June cooling degree days 59 50  
Growing Degree Days 26 (Base 50)    
Moisture  
Dew Point 38 °F    
Average Humidity 37    
Maximum Humidity 58    
Minimum Humidity 15    
Precipitation  
Precipitation 0.00 in 0.06 in 0.49 in (1982)
Month to date precipitation 0.51 1.60  
Year to date precipitation 5.13 7.24  
Sea Level Pressure  
Sea Level Pressure 29.71 in    
Wind  
Wind Speed 16 mph (West)    
Max Wind Speed 32 mph    
Max Gust Speed 40 mph    
Visibility 10 miles    
Events      
T = Trace of Precipitation, MM = Missing Value Source: NWS Daily Summary

Daily Weather History Graph

Daily Weather History Graph

Search for Another Location

Airport:

Trip Planner

Search our weather history database for the weather conditions in past years. The results will help you decide how hot, cold, wet, or windy it might be!

Date:

Astronomy

Jun. 25, 2013 Rise Set
Actual Time 5:24 AM MDT 8:44 PM MDT
Civil Twilight 4:49 AM MDT 9:19 PM MDT
Nautical Twilight 4:03 AM MDT 10:04 PM MDT
Astronomical Twilight 3:07 AM MDT 11:00 PM MDT
Moon 10:26 PM MDT (6/25) 8:11 AM MDT (6/25)
Length of Visible Light 16h 29m
Length of Day
15h 19m
Waning Gibbous, 92% of the Moon is Illuminated
Jun 25
Waning Gibbous
Jun 29
Last Quarter
Jul 8
New
Jul 15
First Quarter
Jul 22
Full

Hourly Weather History & Observations

Time (MDT) Temp. Dew Point Humidity Pressure Visibility Wind Dir Wind Speed Gust Speed Precip Events Conditions
12:53 AM 66.9 °F 51.1 °F 57% 29.62 in 10.0 mi SE 15.0 mph 23.0 mph N/A   Clear
1:53 AM 66.0 °F 48.9 °F 54% 29.63 in 10.0 mi ESE 9.2 mph - N/A   Clear
2:53 AM 73.0 °F 34.0 °F 24% 29.63 in 10.0 mi WSW 8.1 mph - N/A   Clear
3:53 AM 69.1 °F 36.0 °F 30% 29.63 in 10.0 mi West 8.1 mph - N/A   Mostly Cloudy
4:53 AM 70.0 °F 37.0 °F 30% 29.64 in 10.0 mi West 16.1 mph 26.5 mph N/A   Mostly Cloudy
5:53 AM 66.0 °F 37.9 °F 36% 29.65 in 10.0 mi WSW 6.9 mph - N/A   Partly Cloudy
6:53 AM 66.9 °F 39.0 °F 36% 29.67 in 10.0 mi West 18.4 mph 25.3 mph N/A   Clear
7:53 AM 70.0 °F 39.0 °F 32% 29.68 in 10.0 mi West 25.3 mph 36.8 mph N/A   Clear
8:53 AM 73.0 °F 39.0 °F 29% 29.71 in 10.0 mi West 31.1 mph 36.8 mph N/A   Clear
9:53 AM 75.9 °F 39.0 °F 26% 29.73 in 10.0 mi NW 26.5 mph 35.7 mph N/A   Clear
10:53 AM 79.0 °F 39.9 °F 25% 29.74 in 10.0 mi WNW 23.0 mph 36.8 mph N/A   Clear
11:53 AM 81.0 °F 39.9 °F 23% 29.73 in 10.0 mi NW 19.6 mph 26.5 mph N/A   Partly Cloudy
12:53 PM 82.9 °F 37.9 °F 20% 29.73 in 10.0 mi West 20.7 mph 27.6 mph N/A   Clear
1:53 PM 82.9 °F 36.0 °F 19% 29.72 in 10.0 mi WNW 21.9 mph 28.8 mph N/A   Mostly Cloudy
2:53 PM 87.1 °F 37.0 °F 17% 29.70 in 10.0 mi WNW 24.2 mph 34.5 mph N/A   Partly Cloudy
3:53 PM 86.0 °F 35.1 °F 16% 29.71 in 10.0 mi West 25.3 mph 36.8 mph N/A   Clear
4:53 PM 86.0 °F 34.0 °F 16% 29.70 in 10.0 mi West 24.2 mph 32.2 mph N/A   Clear
5:53 PM 82.0 °F 34.0 °F 18% 29.72 in 10.0 mi West 21.9 mph 26.5 mph N/A   Partly Cloudy
6:53 PM 82.0 °F 34.0 °F 18% 29.73 in 10.0 mi West 16.1 mph 24.2 mph N/A   Mostly Cloudy
7:53 PM 81.0 °F 35.1 °F 19% 29.74 in 10.0 mi West 10.4 mph - N/A   Mostly Cloudy
8:53 PM 75.0 °F 35.1 °F 23% 29.76 in 10.0 mi West 9.2 mph - N/A   Clear
9:53 PM 68.0 °F 35.1 °F 30% 29.79 in 10.0 mi West 4.6 mph - N/A   Clear
10:53 PM 64.9 °F 35.1 °F 33% 29.81 in 10.0 mi West 4.6 mph - N/A   Clear
11:53 PM 60.1 °F 35.1 °F 39% 29.82 in 10.0 mi Calm Calm - N/A   Clear